Time,TemperatureF,DewpointF,PressureIn,WindDirection,WindDirectionDegrees,WindSpeedMPH,WindSpeedGustMPH,Humidity,HourlyPrecipIn,Conditions,Clouds,dailyrainin,SoftwareType,DateUTC
2013-09-10 00:02:00,74.3,65.7,29.93,NE,34,0.0,0.0,74,0.00,,,0.00,WUHU216DAVISVP2,2013-09-10 05:02:00,
2013-09-10 00:07:00,74.2,65.6,29.93,NE,34,0.0,0.0,74,0.00,,,0.00,WUHU216DAVISVP2,2013-09-10 05:07:00,
2013-09-10 00:12:00,74.0,65.4,29.93,NE,34,0.0,0.0,74,0.00,,,0.00,WUHU216DAVISVP2,2013-09-10 05:12:00,
2013-09-10 00:17:00,73.9,65.3,29.93,NE,34,0.0,0.0,74,0.00,,,0.00,WUHU216DAVISVP2,2013-09-10 05:17:00,
2013-09-10 00:22:00,73.8,65.5,29.94,NE,34,0.0,0.0,75,0.00,,,0.00,WUHU216DAVISVP2,2013-09-10 05:22:00,
2013-09-10 00:27:00,73.7,65.8,29.94,NE,34,0.0,0.0,76,0.00,,,0.00,WUHU216DAVISVP2,2013-09-10 05:27:00,
2013-09-10 00:32:00,73.3,65.4,29.94,NE,34,0.0,0.0,76,0.00,,,0.00,WUHU216DAVISVP2,2013-09-10 05:32:00,
2013-09-10 00:37:00,73.0,65.1,29.94,NE,34,0.0,0.0,76,0.00,,,0.00,WUHU216DAVISVP2,2013-09-10 05:37:00,
2013-09-10 00:42:00,72.7,64.8,29.94,NE,34,0.0,0.0,76,0.00,,,0.00,WUHU216DAVISVP2,2013-09-10 05:42:00,
2013-09-10 00:47:00,72.4,64.9,29.94,NE,34,0.0,0.0,77,0.00,,,0.00,WUHU216DAVISVP2,2013-09-10 05:47:00,
2013-09-10 00:52:00,72.1,65.0,29.94,NE,34,0.0,0.0,78,0.00,,,0.00,WUHU216DAVISVP2,2013-09-10 05:52:00,
2013-09-10 00:57:00,71.9,64.8,29.94,NE,34,0.0,0.0,78,0.00,,,0.00,WUHU216DAVISVP2,2013-09-10 05:57:00,
2013-09-10 01:02:00,71.8,64.7,29.94,NE,34,0.0,0.0,78,0.00,,,0.00,WUHU216DAVISVP2,2013-09-10 06:02:00,
2013-09-10 01:07:00,71.6,64.8,29.94,NE,34,0.0,0.0,79,0.00,,,0.00,WUHU216DAVISVP2,2013-09-10 06:07:00,
2013-09-10 01:12:00,71.4,64.6,29.94,NE,34,0.0,0.0,79,0.00,,,0.00,WUHU216DAVISVP2,2013-09-10 06:12:00,
2013-09-10 01:17:00,71.3,64.6,29.94,NE,34,0.0,0.0,79,0.00,,,0.00,WUHU216DAVISVP2,2013-09-10 06:17:00,
2013-09-10 01:22:00,71.1,64.7,29.94,NE,34,0.0,0.0,80,0.00,,,0.00,WUHU216DAVISVP2,2013-09-10 06:22:00,
2013-09-10 01:27:00,70.9,64.5,29.94,NE,34,0.0,0.0,80,0.00,,,0.00,WUHU216DAVISVP2,2013-09-10 06:27:00,
2013-09-10 01:32:00,70.8,64.4,29.94,NE,34,0.0,0.0,80,0.00,,,0.00,WUHU216DAVISVP2,2013-09-10 06:32:00,
2013-09-10 01:37:00,70.8,64.4,29.94,NE,34,0.0,0.0,80,0.00,,,0.00,WUHU216DAVISVP2,2013-09-10 06:37:00,
2013-09-10 01:42:00,70.8,64.4,29.94,NE,34,0.0,0.0,80,0.00,,,0.00,WUHU216DAVISVP2,2013-09-10 06:42:00,
2013-09-10 01:47:00,70.7,64.3,29.94,NE,34,0.0,0.0,80,0.00,,,0.00,WUHU216DAVISVP2,2013-09-10 06:47:00,
2013-09-10 01:51:00,70.7,64.3,29.94,NE,34,0.0,0.0,80,0.00,,,0.00,WUHU216DAVISVP2,2013-09-10 06:51:00,
2013-09-10 01:56:00,70.6,64.3,29.94,NE,34,0.0,0.0,80,0.00,,,0.00,WUHU216DAVISVP2,2013-09-10 06:56:00,
2013-09-10 02:01:00,70.6,64.2,29.94,NE,34,0.0,0.0,80,0.00,,,0.00,WUHU216DAVISVP2,2013-09-10 07:01:00,
2013-09-10 02:06:00,70.6,64.2,29.94,NE,34,0.0,0.0,80,0.00,,,0.00,WUHU216DAVISVP2,2013-09-10 07:06:00,
2013-09-10 02:11:00,70.5,64.4,29.95,NE,34,0.0,0.0,81,0.00,,,0.00,WUHU216DAVISVP2,2013-09-10 07:11:00,
2013-09-10 02:16:00,70.4,64.3,29.95,NE,34,0.0,0.0,81,0.00,,,0.00,WUHU216DAVISVP2,2013-09-10 07:16:00,
2013-09-10 02:21:00,70.2,64.2,29.95,NE,34,0.0,0.0,81,0.00,,,0.00,WUHU216DAVISVP2,2013-09-10 07:21:00,
2013-09-10 02:26:00,70.1,64.1,29.95,NE,34,0.0,0.0,81,0.00,,,0.00,WUHU216DAVISVP2,2013-09-10 07:26:00,
2013-09-10 02:31:00,70.0,64.3,29.95,NE,34,0.0,0.0,82,0.00,,,0.00,WUHU216DAVISVP2,2013-09-10 07:31:00,
2013-09-10 02:36:00,69.9,64.2,29.95,NE,34,0.0,0.0,82,0.00,,,0.00,WUHU216DAVISVP2,2013-09-10 07:36:00,
2013-09-10 02:41:00,69.9,64.3,29.95,NE,34,0.0,0.0,82,0.00,,,0.00,WUHU216DAVISVP2,2013-09-10 07:41:00,
2013-09-10 02:46:00,69.9,64.2,29.95,NE,34,0.0,0.0,82,0.00,,,0.00,WUHU216DAVISVP2,2013-09-10 07:46:00,
2013-09-10 02:51:00,69.7,64.3,29.96,NE,34,0.0,0.0,83,0.00,,,0.00,WUHU216DAVISVP2,2013-09-10 07:51:00,
2013-09-10 02:56:00,69.6,64.2,29.95,NE,34,0.0,0.0,83,0.00,,,0.00,WUHU216DAVISVP2,2013-09-10 07:56:00,
2013-09-10 03:01:00,69.5,64.5,29.95,NE,34,0.0,0.0,84,0.00,,,0.00,WUHU216DAVISVP2,2013-09-10 08:01:00,
2013-09-10 03:06:00,69.4,64.4,29.96,NE,34,0.0,0.0,84,0.00,,,0.00,WUHU216DAVISVP2,2013-09-10 08:06:00,
2013-09-10 03:11:00,69.3,64.3,29.96,NE,34,0.0,0.0,84,0.00,,,0.00,WUHU216DAVISVP2,2013-09-10 08:11:00,
2013-09-10 03:16:00,69.2,64.5,29.95,NE,34,0.0,0.0,85,0.00,,,0.00,WUHU216DAVISVP2,2013-09-10 08:16:00,
2013-09-10 03:21:00,69.1,64.4,29.95,NE,34,0.0,0.0,85,0.00,,,0.00,WUHU216DAVISVP2,2013-09-10 08:21:00,
2013-09-10 03:26:00,68.9,64.2,29.96,NE,34,0.0,0.0,85,0.00,,,0.00,WUHU216DAVISVP2,2013-09-10 08:26:00,
2013-09-10 03:31:00,68.7,64.4,29.95,NE,34,0.0,0.0,86,0.00,,,0.00,WUHU216DAVISVP2,2013-09-10 08:31:00,
2013-09-10 03:36:00,68.5,64.2,29.96,NE,34,0.0,0.0,86,0.00,,,0.00,WUHU216DAVISVP2,2013-09-10 08:36:00,
2013-09-10 03:41:00,68.6,64.5,29.96,NE,34,0.0,0.0,87,0.00,,,0.00,WUHU216DAVISVP2,2013-09-10 08:41:00,
2013-09-10 03:46:00,68.5,64.5,29.96,NE,34,0.0,0.0,87,0.00,,,0.00,WUHU216DAVISVP2,2013-09-10 08:46:00,
2013-09-10 03:51:00,68.4,64.4,29.96,NE,34,0.0,0.0,87,0.00,,,0.00,WUHU216DAVISVP2,2013-09-10 08:51:00,
2013-09-10 03:56:00,68.3,64.3,29.96,NE,34,0.0,0.0,87,0.00,,,0.00,WUHU216DAVISVP2,2013-09-10 08:56:00,
2013-09-10 04:01:00,68.3,64.3,29.96,NE,34,0.0,0.0,87,0.00,,,0.00,WUHU216DAVISVP2,2013-09-10 09:01:00,
2013-09-10 04:06:00,68.3,64.6,29.96,NE,34,0.0,0.0,88,0.00,,,0.00,WUHU216DAVISVP2,2013-09-10 09:06:00,
2013-09-10 04:11:00,68.1,64.4,29.97,NE,34,0.0,0.0,88,0.00,,,0.00,WUHU216DAVISVP2,2013-09-10 09:11:00,
2013-09-10 04:16:00,68.0,64.3,29.97,NE,34,0.0,0.0,88,0.00,,,0.00,WUHU216DAVISVP2,2013-09-10 09:16:00,
2013-09-10 04:21:00,67.9,64.3,29.97,NE,34,0.0,0.0,88,0.00,,,0.00,WUHU216DAVISVP2,2013-09-10 09:21:00,
2013-09-10 04:26:00,67.8,64.1,29.97,NE,34,0.0,0.0,88,0.00,,,0.00,WUHU216DAVISVP2,2013-09-10 09:26:00,
2013-09-10 04:31:00,67.7,64.0,29.97,NE,34,0.0,0.0,88,0.00,,,0.00,WUHU216DAVISVP2,2013-09-10 09:31:00,
2013-09-10 04:36:00,67.5,63.8,29.97,NE,34,0.0,0.0,88,0.00,,,0.00,WUHU216DAVISVP2,2013-09-10 09:36:00,
2013-09-10 04:41:00,67.3,64.0,29.97,NE,34,0.0,0.0,89,0.00,,,0.00,WUHU216DAVISVP2,2013-09-10 09:41:00,
2013-09-10 04:46:00,67.2,63.8,29.98,NE,34,0.0,0.0,89,0.00,,,0.00,WUHU216DAVISVP2,2013-09-10 09:46:00,
2013-09-10 04:51:00,67.1,64.1,29.98,NE,34,0.0,0.0,90,0.00,,,0.00,WUHU216DAVISVP2,2013-09-10 09:51:00,
2013-09-10 04:56:00,67.1,64.1,29.98,NE,34,0.0,0.0,90,0.00,,,0.00,WUHU216DAVISVP2,2013-09-10 09:56:00,
2013-09-10 05:01:00,67.2,64.1,29.98,NE,34,0.0,0.0,90,0.00,,,0.00,WUHU216DAVISVP2,2013-09-10 10:01:00,
2013-09-10 05:06:00,67.2,64.1,29.98,NE,34,0.0,0.0,90,0.00,,,0.00,WUHU216DAVISVP2,2013-09-10 10:06:00,
2013-09-10 05:11:00,67.1,64.1,29.98,NE,34,0.0,0.0,90,0.00,,,0.00,WUHU216DAVISVP2,2013-09-10 10:11:00,
2013-09-10 05:16:00,67.1,64.0,29.99,NE,34,0.0,0.0,90,0.00,,,0.00,WUHU216DAVISVP2,2013-09-10 10:16:00,
2013-09-10 05:21:00,67.1,64.0,29.99,NE,34,0.0,0.0,90,0.00,,,0.00,WUHU216DAVISVP2,2013-09-10 10:21:00,
2013-09-10 05:26:00,67.0,64.0,29.99,NE,34,0.0,0.0,90,0.00,,,0.00,WUHU216DAVISVP2,2013-09-10 10:26:00,
2013-09-10 05:31:00,67.0,64.0,29.99,NE,34,0.0,0.0,90,0.00,,,0.00,WUHU216DAVISVP2,2013-09-10 10:31:00,
2013-09-10 05:36:00,67.1,64.0,29.99,NE,34,0.0,0.0,90,0.00,,,0.00,WUHU216DAVISVP2,2013-09-10 10:36:00,
2013-09-10 05:41:00,67.1,64.1,29.99,NE,34,0.0,0.0,90,0.00,,,0.00,WUHU216DAVISVP2,2013-09-10 10:41:00,
2013-09-10 05:46:00,67.1,64.1,29.99,NE,34,0.0,0.0,90,0.00,,,0.00,WUHU216DAVISVP2,2013-09-10 10:46:00,
2013-09-10 05:51:00,67.2,64.1,29.99,NE,34,0.0,0.0,90,0.00,,,0.00,WUHU216DAVISVP2,2013-09-10 10:51:00,
2013-09-10 05:56:00,67.2,64.2,29.99,NE,34,0.0,0.0,90,0.00,,,0.00,WUHU216DAVISVP2,2013-09-10 10:56:00,
2013-09-10 06:01:00,67.2,64.2,30.00,NE,34,0.0,0.0,90,0.00,,,0.00,WUHU216DAVISVP2,2013-09-10 11:01:00,
2013-09-10 06:06:00,67.3,64.2,30.00,NE,34,0.0,0.0,90,0.00,,,0.00,WUHU216DAVISVP2,2013-09-10 11:06:00,
2013-09-10 06:11:00,67.4,64.4,30.00,NE,34,0.0,0.0,90,0.00,,,0.00,WUHU216DAVISVP2,2013-09-10 11:11:00,
2013-09-10 06:16:00,67.4,64.4,30.00,NE,34,0.0,0.0,90,0.00,,,0.00,WUHU216DAVISVP2,2013-09-10 11:16:00,
2013-09-10 06:21:00,67.6,64.5,30.00,NE,34,0.0,0.0,90,0.00,,,0.00,WUHU216DAVISVP2,2013-09-10 11:21:00,
2013-09-10 06:26:00,67.7,64.7,30.00,NE,34,0.0,0.0,90,0.00,,,0.00,WUHU216DAVISVP2,2013-09-10 11:26:00,
2013-09-10 06:31:00,67.7,64.4,30.01,NE,34,0.0,0.0,89,0.00,,,0.00,WUHU216DAVISVP2,2013-09-10 11:31:00,
2013-09-10 06:36:00,67.7,64.3,30.01,NE,34,0.0,0.0,89,0.00,,,0.00,WUHU216DAVISVP2,2013-09-10 11:36:00,
2013-09-10 06:41:00,67.6,64.6,30.01,NE,34,0.0,0.0,90,0.00,,,0.00,WUHU216DAVISVP2,2013-09-10 11:41:00,
2013-09-10 06:46:00,67.7,64.6,30.01,NE,34,0.0,0.0,90,0.00,,,0.00,WUHU216DAVISVP2,2013-09-10 11:46:00,
2013-09-10 06:51:00,67.7,64.6,30.01,NE,34,0.0,0.0,90,0.00,,,0.00,WUHU216DAVISVP2,2013-09-10 11:51:00,
2013-09-10 06:56:00,67.8,64.5,30.01,NE,34,0.0,0.0,89,0.00,,,0.00,WUHU216DAVISVP2,2013-09-10 11:56:00,
2013-09-10 07:01:00,67.9,64.5,30.01,NE,34,0.0,0.0,89,0.00,,,0.00,WUHU216DAVISVP2,2013-09-10 12:01:00,
2013-09-10 07:06:00,67.9,64.5,30.01,NE,34,0.0,0.0,89,0.00,,,0.00,WUHU216DAVISVP2,2013-09-10 12:06:00,
2013-09-10 07:11:00,67.9,64.6,30.02,NE,34,0.0,0.0,89,0.00,,,0.00,WUHU216DAVISVP2,2013-09-10 12:11:00,
2013-09-10 07:16:00,68.0,64.6,30.02,NE,34,0.0,0.0,89,0.00,,,0.00,WUHU216DAVISVP2,2013-09-10 12:16:00,
2013-09-10 07:21:00,68.0,64.6,30.02,NE,34,0.0,0.0,89,0.00,,,0.00,WUHU216DAVISVP2,2013-09-10 12:21:00,
2013-09-10 07:26:00,68.1,64.8,30.02,NE,34,0.0,0.0,89,0.00,,,0.00,WUHU216DAVISVP2,2013-09-10 12:26:00,
2013-09-10 07:31:00,68.2,64.8,30.02,NE,34,0.0,0.0,89,0.00,,,0.00,WUHU216DAVISVP2,2013-09-10 12:31:00,
2013-09-10 07:36:00,68.2,64.5,30.02,NE,34,0.0,0.0,88,0.00,,,0.00,WUHU216DAVISVP2,2013-09-10 12:36:00,
2013-09-10 07:41:00,68.6,64.9,30.02,NE,34,0.0,0.0,88,0.00,,,0.00,WUHU216DAVISVP2,2013-09-10 12:41:00,
2013-09-10 07:46:00,68.8,65.1,30.02,NE,34,0.0,0.0,88,0.00,,,0.00,WUHU216DAVISVP2,2013-09-10 12:46:00,
2013-09-10 07:51:00,69.1,65.1,30.03,NE,34,2.0,3.0,87,0.00,,,0.00,WUHU216DAVISVP2,2013-09-10 12:51:00,
2013-09-10 07:56:00,69.4,65.3,30.03,NE,34,0.0,3.0,87,0.00,,,0.00,WUHU216DAVISVP2,2013-09-10 12:56:00,
2013-09-10 08:01:00,69.8,65.4,30.03,NE,34,0.0,3.0,86,0.00,,,0.00,WUHU216DAVISVP2,2013-09-10 13:01:00,
2013-09-10 08:06:00,70.1,65.4,30.03,NE,34,0.0,3.0,85,0.00,,,0.00,WUHU216DAVISVP2,2013-09-10 13:06:00,
2013-09-10 08:11:00,70.6,65.6,30.03,NE,34,0.0,3.0,84,0.00,,,0.00,WUHU216DAVISVP2,2013-09-10 13:11:00,
2013-09-10 08:16:00,71.2,66.1,30.03,NE,34,0.0,2.0,84,0.00,,,0.00,WUHU216DAVISVP2,2013-09-10 13:16:00,
2013-09-10 08:21:00,71.5,65.8,30.03,NE,34,3.0,5.0,82,0.00,,,0.00,WUHU216DAVISVP2,2013-09-10 13:21:00,
2013-09-10 08:26:00,71.9,65.8,30.03,NE,34,0.0,5.0,81,0.00,,,0.00,WUHU216DAVISVP2,2013-09-10 13:26:00,
2013-09-10 08:31:00,72.2,65.8,30.03,NE,34,0.0,5.0,80,0.00,,,0.00,WUHU216DAVISVP2,2013-09-10 13:31:00,
2013-09-10 08:36:00,72.6,65.8,30.04,NE,34,3.0,5.0,79,0.00,,,0.00,WUHU216DAVISVP2,2013-09-10 13:36:00,
2013-09-10 08:41:00,72.9,65.8,30.04,NE,34,3.0,6.0,78,0.00,,,0.00,WUHU216DAVISVP2,2013-09-10 13:41:00,
2013-09-10 08:46:00,73.2,65.6,30.04,NE,34,0.0,6.0,77,0.00,,,0.00,WUHU216DAVISVP2,2013-09-10 13:46:00,
2013-09-10 08:51:00,73.6,65.7,30.04,NE,34,4.0,6.0,76,0.00,,,0.00,WUHU216DAVISVP2,2013-09-10 13:51:00,
2013-09-10 08:56:00,73.9,66.0,30.04,NNE,20,3.0,6.0,76,0.00,,,0.00,WUHU216DAVISVP2,2013-09-10 13:56:00,
2013-09-10 09:01:00,74.0,66.1,30.04,North,8,4.0,6.0,76,0.00,,,0.00,WUHU216DAVISVP2,2013-09-10 14:01:00,
2013-09-10 09:06:00,74.4,66.4,30.04,North,7,0.0,6.0,76,0.00,,,0.00,WUHU216DAVISVP2,2013-09-10 14:06:00,
2013-09-10 09:11:00,74.6,66.3,30.05,North,7,0.0,6.0,75,0.00,,,0.00,WUHU216DAVISVP2,2013-09-10 14:11:00,
2013-09-10 09:16:00,74.9,66.6,30.05,North,6,0.0,7.0,75,0.00,,,0.00,WUHU216DAVISVP2,2013-09-10 14:16:00,
2013-09-10 09:21:00,75.2,66.5,30.05,North,6,0.0,7.0,74,0.00,,,0.00,WUHU216DAVISVP2,2013-09-10 14:21:00,
2013-09-10 09:26:00,75.7,66.6,30.05,NNE,15,2.0,7.0,73,0.00,,,0.00,WUHU216DAVISVP2,2013-09-10 14:26:00,
2013-09-10 09:31:00,75.9,66.1,30.05,NNE,20,0.0,7.0,71,0.00,,,0.00,WUHU216DAVISVP2,2013-09-10 14:31:00,
2013-09-10 09:36:00,76.1,66.2,30.05,NNE,20,3.0,6.0,71,0.00,,,0.00,WUHU216DAVISVP2,2013-09-10 14:36:00,
2013-09-10 09:41:00,76.4,65.7,30.05,NE,39,2.0,6.0,69,0.00,,,0.00,WUHU216DAVISVP2,2013-09-10 14:41:00,
2013-09-10 09:46:00,76.8,66.1,30.05,NE,35,0.0,6.0,69,0.00,,,0.00,WUHU216DAVISVP2,2013-09-10 14:46:00,
2013-09-10 09:51:00,77.2,65.6,30.05,NE,53,2.0,7.0,67,0.00,,,0.00,WUHU216DAVISVP2,2013-09-10 14:51:00,
2013-09-10 09:56:00,77.5,65.9,30.06,ENE,66,0.0,8.0,67,0.00,,,0.00,WUHU216DAVISVP2,2013-09-10 14:56:00,
2013-09-10 10:01:00,77.7,65.3,30.05,ENE,61,2.0,9.0,65,0.00,,,0.00,WUHU216DAVISVP2,2013-09-10 15:01:00,
2013-09-10 10:06:00,77.9,65.0,30.05,ENE,58,2.0,9.0,64,0.00,,,0.00,WUHU216DAVISVP2,2013-09-10 15:06:00,
2013-09-10 10:11:00,78.0,65.1,30.06,ENE,73,2.0,12.0,64,0.00,,,0.00,WUHU216DAVISVP2,2013-09-10 15:11:00,
2013-09-10 10:16:00,78.3,63.5,30.06,ENE,66,7.0,12.0,60,0.00,,,0.00,WUHU216DAVISVP2,2013-09-10 15:16:00,
2013-09-10 10:21:00,78.3,64.5,30.06,East,83,2.0,12.0,62,0.00,,,0.00,WUHU216DAVISVP2,2013-09-10 15:21:00,
2013-09-10 10:26:00,78.8,64.5,30.06,ENE,70,4.0,12.0,61,0.00,,,0.00,WUHU216DAVISVP2,2013-09-10 15:26:00,
2013-09-10 10:31:00,78.9,64.6,30.06,ENE,75,3.0,13.0,61,0.00,,,0.00,WUHU216DAVISVP2,2013-09-10 15:31:00,
2013-09-10 10:36:00,79.1,64.3,30.06,ENE,63,4.0,13.0,60,0.00,,,0.00,WUHU216DAVISVP2,2013-09-10 15:36:00,
2013-09-10 10:41:00,79.2,63.9,30.06,NNE,29,4.0,12.0,59,0.00,,,0.00,WUHU216DAVISVP2,2013-09-10 15:41:00,
2013-09-10 10:46:00,79.4,63.1,30.06,ENE,77,8.0,12.0,57,0.00,,,0.00,WUHU216DAVISVP2,2013-09-10 15:46:00,
2013-09-10 10:51:00,79.5,63.6,30.06,ENE,61,9.0,12.0,58,0.00,,,0.00,WUHU216DAVISVP2,2013-09-10 15:51:00,
2013-09-10 10:56:00,79.7,64.3,30.06,ENE,64,2.0,11.0,59,0.00,,,0.00,WUHU216DAVISVP2,2013-09-10 15:56:00,
2013-09-10 11:01:00,80.0,64.1,30.06,ENE,63,0.0,11.0,58,0.00,,,0.00,WUHU216DAVISVP2,2013-09-10 16:01:00,
2013-09-10 11:06:00,80.5,63.6,30.06,NE,38,5.0,11.0,56,0.00,,,0.00,WUHU216DAVISVP2,2013-09-10 16:06:00,
2013-09-10 11:11:00,80.7,63.8,30.06,NE,53,4.0,11.0,56,0.00,,,0.00,WUHU216DAVISVP2,2013-09-10 16:11:00,
2013-09-10 11:16:00,80.9,63.4,30.06,ENE,77,5.0,11.0,55,0.00,,,0.00,WUHU216DAVISVP2,2013-09-10 16:16:00,
2013-09-10 11:21:00,81.1,64.1,30.06,East,79,3.0,11.0,56,0.00,,,0.00,WUHU216DAVISVP2,2013-09-10 16:21:00,
2013-09-10 11:26:00,81.4,62.8,30.06,ENE,63,6.0,14.0,53,0.00,,,0.00,WUHU216DAVISVP2,2013-09-10 16:26:00,
2013-09-10 11:31:00,81.5,61.8,30.06,NE,40,7.0,14.0,51,0.00,,,0.00,WUHU216DAVISVP2,2013-09-10 16:31:00,
2013-09-10 11:36:00,81.7,62.5,30.06,ENE,72,4.0,15.0,52,0.00,,,0.00,WUHU216DAVISVP2,2013-09-10 16:36:00,
2013-09-10 11:41:00,81.7,62.5,30.06,ENE,65,6.0,15.0,52,0.00,,,0.00,WUHU216DAVISVP2,2013-09-10 16:41:00,
2013-09-10 11:46:00,81.7,62.0,30.06,East,94,7.0,15.0,51,0.00,,,0.00,WUHU216DAVISVP2,2013-09-10 16:46:00,
2013-09-10 11:51:00,81.8,62.6,30.06,ENE,77,0.0,14.0,52,0.00,,,0.00,WUHU216DAVISVP2,2013-09-10 16:51:00,
2013-09-10 11:56:00,82.0,62.3,30.06,ENE,59,3.0,14.0,51,0.00,,,0.00,WUHU216DAVISVP2,2013-09-10 16:56:00,
2013-09-10 12:01:00,82.0,61.6,30.06,ENE,64,3.0,13.0,50,0.00,,,0.00,WUHU216DAVISVP2,2013-09-10 17:01:00,
2013-09-10 12:06:00,82.0,61.7,30.06,ENE,72,7.0,12.0,50,0.00,,,0.00,WUHU216DAVISVP2,2013-09-10 17:06:00,
2013-09-10 12:11:00,82.1,61.7,30.06,East,79,11.0,12.0,50,0.00,,,0.00,WUHU216DAVISVP2,2013-09-10 17:11:00,
2013-09-10 12:16:00,82.3,62.5,30.06,ENE,62,3.0,12.0,51,0.00,,,0.00,WUHU216DAVISVP2,2013-09-10 17:16:00,
2013-09-10 12:21:00,82.4,62.6,30.05,ENE,67,5.0,12.0,51,0.00,,,0.00,WUHU216DAVISVP2,2013-09-10 17:21:00,
2013-09-10 12:26:00,82.4,62.0,30.05,NE,56,6.0,12.0,50,0.00,,,0.00,WUHU216DAVISVP2,2013-09-10 17:26:00,
2013-09-10 12:31:00,82.5,63.8,30.06,NE,37,3.0,11.0,53,0.00,,,0.00,WUHU216DAVISVP2,2013-09-10 17:31:00,
2013-09-10 12:36:00,83.0,64.3,30.05,NE,35,3.0,10.0,53,0.00,,,0.00,WUHU216DAVISVP2,2013-09-10 17:36:00,
2013-09-10 12:41:00,83.3,62.3,30.05,ENE,62,9.0,10.0,49,0.00,,,0.00,WUHU216DAVISVP2,2013-09-10 17:41:00,
2013-09-10 12:46:00,83.2,64.5,30.05,NNE,30,5.0,9.0,53,0.00,,,0.00,WUHU216DAVISVP2,2013-09-10 17:46:00,
2013-09-10 12:51:00,83.2,63.3,30.05,NNE,15,2.0,9.0,51,0.00,,,0.00,WUHU216DAVISVP2,2013-09-10 17:51:00,
2013-09-10 12:56:00,83.3,61.7,30.05,NE,46,0.0,9.0,48,0.00,,,0.00,WUHU216DAVISVP2,2013-09-10 17:56:00,
2013-09-10 13:01:00,83.6,61.9,30.05,North,360,6.0,10.0,48,0.00,,,0.00,WUHU216DAVISVP2,2013-09-10 18:01:00,
2013-09-10 13:06:00,83.7,62.0,30.05,North,6,1.0,11.0,48,0.00,,,0.00,WUHU216DAVISVP2,2013-09-10 18:06:00,
2013-09-10 13:11:00,83.7,62.6,30.05,NE,46,1.0,11.0,49,0.00,,,0.00,WUHU216DAVISVP2,2013-09-10 18:11:00,
2013-09-10 13:16:00,83.5,61.9,30.05,ENE,74,2.0,11.0,48,0.00,,,0.00,WUHU216DAVISVP2,2013-09-10 18:16:00,
2013-09-10 13:21:00,83.7,61.4,30.05,ENE,57,7.0,11.0,47,0.00,,,0.00,WUHU216DAVISVP2,2013-09-10 18:21:00,
2013-09-10 13:26:00,83.4,61.1,30.05,ENE,64,3.0,10.0,47,0.00,,,0.00,WUHU216DAVISVP2,2013-09-10 18:26:00,
2013-09-10 13:31:00,83.4,60.5,30.05,ENE,69,6.0,11.0,46,0.00,,,0.00,WUHU216DAVISVP2,2013-09-10 18:31:00,
2013-09-10 13:36:00,83.6,61.3,30.05,NE,56,3.0,11.0,47,0.00,,,0.00,WUHU216DAVISVP2,2013-09-10 18:36:00,
2013-09-10 13:41:00,83.6,61.4,30.04,East,84,5.0,11.0,47,0.00,,,0.00,WUHU216DAVISVP2,2013-09-10 18:41:00,
2013-09-10 13:46:00,83.9,62.8,30.04,NE,41,2.0,11.0,49,0.00,,,0.00,WUHU216DAVISVP2,2013-09-10 18:46:00,
2013-09-10 13:51:00,84.4,61.4,30.04,ENE,64,7.0,10.0,46,0.00,,,0.00,WUHU216DAVISVP2,2013-09-10 18:51:00,
2013-09-10 13:56:00,84.5,62.1,30.04,East,81,7.0,9.0,47,0.00,,,0.00,WUHU216DAVISVP2,2013-09-10 18:56:00,
2013-09-10 14:01:00,84.8,62.4,30.03,NE,35,10.0,11.0,47,0.00,,,0.00,WUHU216DAVISVP2,2013-09-10 19:01:00,
2013-09-10 14:06:00,84.7,61.7,30.03,ENE,69,4.0,11.0,46,0.00,,,0.00,WUHU216DAVISVP2,2013-09-10 19:06:00,
2013-09-10 14:11:00,84.6,61.6,30.03,East,84,4.0,11.0,46,0.00,,,0.00,WUHU216DAVISVP2,2013-09-10 19:11:00,
2013-09-10 14:16:00,85.3,61.6,30.03,NE,44,2.0,11.0,45,0.00,,,0.00,WUHU216DAVISVP2,2013-09-10 19:16:00,
2013-09-10 14:21:00,85.2,60.9,30.03,NNE,15,2.0,10.0,44,0.00,,,0.00,WUHU216DAVISVP2,2013-09-10 19:21:00,
2013-09-10 14:26:00,85.3,61.0,30.03,ENE,67,3.0,11.0,44,0.00,,,0.00,WUHU216DAVISVP2,2013-09-10 19:26:00,
2013-09-10 14:31:00,85.6,61.2,30.03,ENE,74,6.0,11.0,44,0.00,,,0.00,WUHU216DAVISVP2,2013-09-10 19:31:00,
2013-09-10 14:36:00,85.7,60.6,30.02,NE,37,4.0,13.0,43,0.00,,,0.00,WUHU216DAVISVP2,2013-09-10 19:36:00,
2013-09-10 14:41:00,85.9,62.2,30.02,NNE,31,1.0,13.0,45,0.00,,,0.00,WUHU216DAVISVP2,2013-09-10 19:41:00,
2013-09-10 14:46:00,86.1,62.3,30.02,East,88,2.0,12.0,45,0.00,,,0.00,WUHU216DAVISVP2,2013-09-10 19:46:00,
2013-09-10 14:52:00,86.4,63.2,30.02,ENE,73,8.0,12.0,46,0.00,,,0.00,WUHU216DAVISVP2,2013-09-10 19:52:00,
2013-09-10 14:57:00,86.0,60.9,30.02,ENE,60,5.0,11.0,43,0.00,,,0.00,WUHU216DAVISVP2,2013-09-10 19:57:00,
2013-09-10 15:02:00,86.3,59.8,30.02,ENE,70,7.0,11.0,41,0.00,,,0.00,WUHU216DAVISVP2,2013-09-10 20:02:00,
2013-09-10 15:07:00,86.6,61.4,30.01,NE,36,8.0,11.0,43,0.00,,,0.00,WUHU216DAVISVP2,2013-09-10 20:07:00,
2013-09-10 15:12:00,86.9,61.7,30.01,ENE,57,3.0,10.0,43,0.00,,,0.00,WUHU216DAVISVP2,2013-09-10 20:12:00,
2013-09-10 15:17:00,86.8,62.3,30.01,NNE,25,2.0,10.0,44,0.00,,,0.00,WUHU216DAVISVP2,2013-09-10 20:17:00,
2013-09-10 15:22:00,87.3,61.4,30.01,East,91,4.0,10.0,42,0.00,,,0.00,WUHU216DAVISVP2,2013-09-10 20:22:00,
2013-09-10 15:27:00,87.8,61.9,30.01,NNE,25,1.0,10.0,42,0.00,,,0.00,WUHU216DAVISVP2,2013-09-10 20:27:00,
2013-09-10 15:32:00,87.9,64.0,30.01,ENE,74,6.0,12.0,45,0.00,,,0.00,WUHU216DAVISVP2,2013-09-10 20:32:00,
2013-09-10 15:37:00,87.7,61.8,30.01,ENE,76,7.0,12.0,42,0.00,,,0.00,WUHU216DAVISVP2,2013-09-10 20:37:00,
2013-09-10 15:42:00,87.6,62.4,30.01,ENE,77,10.0,15.0,43,0.00,,,0.00,WUHU216DAVISVP2,2013-09-10 20:42:00,
2013-09-10 15:47:00,87.8,61.8,30.01,ENE,58,4.0,15.0,42,0.00,,,0.00,WUHU216DAVISVP2,2013-09-10 20:47:00,
2013-09-10 15:52:00,88.0,62.0,30.00,ENE,66,5.0,15.0,42,0.00,,,0.00,WUHU216DAVISVP2,2013-09-10 20:52:00,
2013-09-10 15:57:00,88.0,62.0,30.00,East,86,7.0,15.0,42,0.00,,,0.00,WUHU216DAVISVP2,2013-09-10 20:57:00,
2013-09-10 16:02:00,87.9,61.3,30.00,ENE,77,5.0,11.0,41,0.00,,,0.00,WUHU216DAVISVP2,2013-09-10 21:02:00,
2013-09-10 16:07:00,87.9,62.6,30.00,NE,52,3.0,11.0,43,0.00,,,0.00,WUHU216DAVISVP2,2013-09-10 21:07:00,
2013-09-10 16:12:00,88.3,63.0,30.00,NNE,25,1.0,10.0,43,0.00,,,0.00,WUHU216DAVISVP2,2013-09-10 21:12:00,
2013-09-10 16:17:00,88.5,62.5,30.00,ENE,59,3.0,10.0,42,0.00,,,0.00,WUHU216DAVISVP2,2013-09-10 21:17:00,
2013-09-10 16:22:00,88.9,62.8,29.99,NE,56,3.0,10.0,42,0.00,,,0.00,WUHU216DAVISVP2,2013-09-10 21:22:00,
2013-09-10 16:27:00,89.0,62.9,30.00,NE,52,2.0,10.0,42,0.00,,,0.00,WUHU216DAVISVP2,2013-09-10 21:27:00,
2013-09-10 16:32:00,89.3,63.2,29.99,ENE,78,11.0,12.0,42,0.00,,,0.00,WUHU216DAVISVP2,2013-09-10 21:32:00,
2013-09-10 16:37:00,89.0,62.2,29.99,East,83,7.0,12.0,41,0.00,,,0.00,WUHU216DAVISVP2,2013-09-10 21:37:00,
2013-09-10 16:42:00,89.0,60.8,29.99,ENE,70,8.0,13.0,39,0.00,,,0.00,WUHU216DAVISVP2,2013-09-10 21:42:00,
2013-09-10 16:47:00,89.1,62.3,29.99,NE,54,3.0,13.0,41,0.00,,,0.00,WUHU216DAVISVP2,2013-09-10 21:47:00,
2013-09-10 16:52:00,89.4,62.6,29.99,East,85,5.0,13.0,41,0.00,,,0.00,WUHU216DAVISVP2,2013-09-10 21:52:00,
2013-09-10 16:57:00,89.8,62.9,29.99,ENE,77,7.0,13.0,41,0.00,,,0.00,WUHU216DAVISVP2,2013-09-10 21:57:00,
2013-09-10 17:02:00,89.8,62.3,29.99,East,84,7.0,12.0,40,0.00,,,0.00,WUHU216DAVISVP2,2013-09-10 22:02:00,
2013-09-10 17:07:00,89.8,62.9,29.99,ESE,103,3.0,12.0,41,0.00,,,0.00,WUHU216DAVISVP2,2013-09-10 22:07:00,
2013-09-10 17:12:00,90.1,64.0,29.99,ENE,58,3.0,11.0,42,0.00,,,0.00,WUHU216DAVISVP2,2013-09-10 22:12:00,
2013-09-10 17:17:00,90.2,64.0,29.99,ENE,66,6.0,10.0,42,0.00,,,0.00,WUHU216DAVISVP2,2013-09-10 22:17:00,
2013-09-10 17:22:00,90.0,63.9,29.99,ENE,74,1.0,10.0,42,0.00,,,0.00,WUHU216DAVISVP2,2013-09-10 22:22:00,
2013-09-10 17:27:00,90.3,64.1,29.99,NNE,25,3.0,10.0,42,0.00,,,0.00,WUHU216DAVISVP2,2013-09-10 22:27:00,
2013-09-10 17:32:00,90.3,64.8,29.99,ENE,58,2.0,10.0,43,0.00,,,0.00,WUHU216DAVISVP2,2013-09-10 22:32:00,
2013-09-10 17:37:00,90.4,63.5,29.99,ENE,77,5.0,7.0,41,0.00,,,0.00,WUHU216DAVISVP2,2013-09-10 22:37:00,
2013-09-10 17:42:00,90.2,64.1,29.99,ENE,73,5.0,7.0,42,0.00,,,0.00,WUHU216DAVISVP2,2013-09-10 22:42:00,
2013-09-10 17:47:00,89.8,65.0,29.99,ENE,70,2.0,7.0,44,0.00,,,0.00,WUHU216DAVISVP2,2013-09-10 22:47:00,
2013-09-10 17:52:00,89.4,65.3,29.99,NE,45,0.0,7.0,45,0.00,,,0.00,WUHU216DAVISVP2,2013-09-10 22:52:00,
2013-09-10 17:57:00,89.1,65.1,29.99,NE,45,0.0,7.0,45,0.00,,,0.00,WUHU216DAVISVP2,2013-09-10 22:57:00,
2013-09-10 18:02:00,88.9,65.5,29.99,NE,45,0.0,6.0,46,0.00,,,0.00,WUHU216DAVISVP2,2013-09-10 23:02:00,
2013-09-10 18:07:00,88.9,66.8,29.99,NE,45,0.0,3.0,48,0.00,,,0.00,WUHU216DAVISVP2,2013-09-10 23:07:00,
2013-09-10 18:12:00,89.2,67.1,29.99,NE,45,0.0,1.0,48,0.00,,,0.00,WUHU216DAVISVP2,2013-09-10 23:12:00,
2013-09-10 18:17:00,89.3,66.5,29.99,NE,45,0.0,1.0,47,0.00,,,0.00,WUHU216DAVISVP2,2013-09-10 23:17:00,
2013-09-10 18:22:00,89.1,67.0,29.99,NE,45,0.0,0.0,48,0.00,,,0.00,WUHU216DAVISVP2,2013-09-10 23:22:00,
2013-09-10 18:27:00,89.1,66.4,29.99,NE,45,0.0,0.0,47,0.00,,,0.00,WUHU216DAVISVP2,2013-09-10 23:27:00,
2013-09-10 18:32:00,89.0,67.5,29.99,NE,45,0.0,0.0,49,0.00,,,0.00,WUHU216DAVISVP2,2013-09-10 23:32:00,
2013-09-10 18:37:00,88.7,67.9,29.99,NE,45,0.0,0.0,50,0.00,,,0.00,WUHU216DAVISVP2,2013-09-10 23:37:00,
2013-09-10 18:42:00,88.6,68.3,29.99,NE,45,0.0,0.0,51,0.00,,,0.00,WUHU216DAVISVP2,2013-09-10 23:42:00,
2013-09-10 18:47:00,88.4,68.8,29.99,NE,45,0.0,0.0,52,0.00,,,0.00,WUHU216DAVISVP2,2013-09-10 23:47:00,
2013-09-10 18:52:00,88.3,67.5,29.99,NE,45,0.0,0.0,50,0.00,,,0.00,WUHU216DAVISVP2,2013-09-10 23:52:00,
2013-09-10 18:57:00,88.3,68.0,29.99,NE,45,0.0,0.0,51,0.00,,,0.00,WUHU216DAVISVP2,2013-09-10 23:57:00,
2013-09-10 19:02:00,88.1,69.1,29.99,NE,45,0.0,0.0,53,0.00,,,0.00,WUHU216DAVISVP2,2013-09-11 00:02:00,
2013-09-10 19:07:00,87.6,69.7,29.99,NE,45,0.0,0.0,55,0.00,,,0.00,WUHU216DAVISVP2,2013-09-11 00:07:00,
2013-09-10 19:12:00,87.0,69.1,29.99,NE,45,0.0,0.0,55,0.00,,,0.00,WUHU216DAVISVP2,2013-09-11 00:12:00,
2013-09-10 19:17:00,86.3,69.0,30.00,NE,45,0.0,0.0,56,0.00,,,0.00,WUHU216DAVISVP2,2013-09-11 00:17:00,
2013-09-10 19:22:00,85.7,69.0,29.99,NE,45,0.0,0.0,57,0.00,,,0.00,WUHU216DAVISVP2,2013-09-11 00:22:00,
2013-09-10 19:27:00,85.0,68.3,29.99,NE,45,0.0,0.0,57,0.00,,,0.00,WUHU216DAVISVP2,2013-09-11 00:27:00,
2013-09-10 19:32:00,84.3,68.7,30.00,NE,45,0.0,0.0,59,0.00,,,0.00,WUHU216DAVISVP2,2013-09-11 00:32:00,
2013-09-10 19:37:00,83.7,68.1,30.00,NE,45,0.0,0.0,59,0.00,,,0.00,WUHU216DAVISVP2,2013-09-11 00:37:00,
2013-09-10 19:42:00,83.1,68.5,30.00,NE,45,0.0,0.0,61,0.00,,,0.00,WUHU216DAVISVP2,2013-09-11 00:42:00,
2013-09-10 19:47:00,82.5,68.4,30.00,NE,45,0.0,0.0,62,0.00,,,0.00,WUHU216DAVISVP2,2013-09-11 00:47:00,
2013-09-10 19:52:00,82.0,68.4,30.00,NE,45,0.0,0.0,63,0.00,,,0.00,WUHU216DAVISVP2,2013-09-11 00:52:00,
2013-09-10 19:57:00,81.5,68.4,30.00,NE,45,0.0,0.0,64,0.00,,,0.00,WUHU216DAVISVP2,2013-09-11 00:57:00,
2013-09-10 20:02:00,80.9,68.3,30.00,NE,45,0.0,0.0,65,0.00,,,0.00,WUHU216DAVISVP2,2013-09-11 01:02:00,
2013-09-10 20:07:00,80.5,68.3,30.00,NE,45,0.0,0.0,66,0.00,,,0.00,WUHU216DAVISVP2,2013-09-11 01:07:00,
2013-09-10 20:12:00,80.2,68.0,30.00,NE,45,0.0,0.0,66,0.00,,,0.00,WUHU216DAVISVP2,2013-09-11 01:12:00,
2013-09-10 20:17:00,79.8,68.1,30.01,NE,45,0.0,0.0,67,0.00,,,0.00,WUHU216DAVISVP2,2013-09-11 01:17:00,
2013-09-10 20:22:00,79.5,68.2,30.01,NE,45,0.0,0.0,68,0.00,,,0.00,WUHU216DAVISVP2,2013-09-11 01:22:00,
2013-09-10 20:27:00,79.2,68.3,30.01,NE,45,0.0,0.0,69,0.00,,,0.00,WUHU216DAVISVP2,2013-09-11 01:27:00,
2013-09-10 20:32:00,78.7,67.9,30.01,NE,45,0.0,0.0,69,0.00,,,0.00,WUHU216DAVISVP2,2013-09-11 01:32:00,
2013-09-10 20:37:00,78.3,68.3,30.01,NE,45,0.0,0.0,71,0.00,,,0.00,WUHU216DAVISVP2,2013-09-11 01:37:00,
2013-09-10 20:42:00,77.7,68.1,30.01,NE,45,0.0,0.0,72,0.00,,,0.00,WUHU216DAVISVP2,2013-09-11 01:42:00,
2013-09-10 20:47:00,77.2,67.7,30.01,NE,45,0.0,0.0,72,0.00,,,0.00,WUHU216DAVISVP2,2013-09-11 01:47:00,
2013-09-10 20:52:00,76.7,67.2,30.02,NE,45,0.0,0.0,72,0.00,,,0.00,WUHU216DAVISVP2,2013-09-11 01:52:00,
2013-09-10 20:57:00,76.3,66.8,30.02,NE,45,0.0,0.0,72,0.00,,,0.00,WUHU216DAVISVP2,2013-09-11 01:57:00,
2013-09-10 21:02:00,76.0,66.9,30.02,NE,45,3.0,3.0,73,0.00,,,0.00,WUHU216DAVISVP2,2013-09-11 02:02:00,
2013-09-10 21:07:00,75.9,66.8,30.03,NE,45,0.0,3.0,73,0.00,,,0.00,WUHU216DAVISVP2,2013-09-11 02:07:00,
2013-09-10 21:12:00,75.8,66.7,30.03,NE,45,0.0,3.0,73,0.00,,,0.00,WUHU216DAVISVP2,2013-09-11 02:12:00,
2013-09-10 21:17:00,75.7,66.6,30.03,NE,45,0.0,3.0,73,0.00,,,0.00,WUHU216DAVISVP2,2013-09-11 02:17:00,
2013-09-10 21:22:00,75.5,66.4,30.03,NE,45,0.0,2.0,73,0.00,,,0.00,WUHU216DAVISVP2,2013-09-11 02:22:00,
2013-09-10 21:27:00,75.3,66.6,30.03,NE,45,0.0,0.0,74,0.00,,,0.00,WUHU216DAVISVP2,2013-09-11 02:27:00,
2013-09-10 21:32:00,75.1,66.8,30.03,NE,45,0.0,0.0,75,0.00,,,0.00,WUHU216DAVISVP2,2013-09-11 02:32:00,
2013-09-10 21:37:00,74.8,66.5,30.03,NE,45,0.0,0.0,75,0.00,,,0.00,WUHU216DAVISVP2,2013-09-11 02:37:00,
2013-09-10 21:42:00,74.7,66.4,30.03,NE,45,0.0,0.0,75,0.00,,,0.00,WUHU216DAVISVP2,2013-09-11 02:42:00,
2013-09-10 21:47:00,74.6,66.3,30.03,NE,45,0.0,0.0,75,0.00,,,0.00,WUHU216DAVISVP2,2013-09-11 02:47:00,
2013-09-10 21:52:00,74.4,66.5,30.03,NE,45,0.0,0.0,76,0.00,,,0.00,WUHU216DAVISVP2,2013-09-11 02:52:00,
2013-09-10 21:57:00,74.1,66.2,30.04,NE,45,0.0,0.0,76,0.00,,,0.00,WUHU216DAVISVP2,2013-09-11 02:57:00,
2013-09-10 22:02:00,73.9,66.4,30.04,NE,45,0.0,0.0,77,0.00,,,0.00,WUHU216DAVISVP2,2013-09-11 03:02:00,
2013-09-10 22:07:00,73.5,66.0,30.04,NE,45,0.0,0.0,77,0.00,,,0.00,WUHU216DAVISVP2,2013-09-11 03:07:00,
2013-09-10 22:12:00,73.1,65.9,30.04,NE,45,1.0,3.0,78,0.00,,,0.00,WUHU216DAVISVP2,2013-09-11 03:12:00,
2013-09-10 22:17:00,72.8,65.6,30.04,NE,45,0.0,3.0,78,0.00,,,0.00,WUHU216DAVISVP2,2013-09-11 03:17:00,
2013-09-10 22:22:00,72.5,65.4,30.04,NE,45,0.0,3.0,78,0.00,,,0.00,WUHU216DAVISVP2,2013-09-11 03:22:00,
2013-09-10 22:27:00,72.3,65.2,30.04,NE,45,0.0,3.0,78,0.00,,,0.00,WUHU216DAVISVP2,2013-09-11 03:27:00,
2013-09-10 22:32:00,72.2,65.1,30.04,NE,45,0.0,0.0,78,0.00,,,0.00,WUHU216DAVISVP2,2013-09-11 03:32:00,
2013-09-10 22:37:00,72.1,65.3,30.04,NE,45,0.0,0.0,79,0.00,,,0.00,WUHU216DAVISVP2,2013-09-11 03:37:00,
2013-09-10 22:42:00,71.9,65.1,30.05,NE,45,0.0,0.0,79,0.00,,,0.00,WUHU216DAVISVP2,2013-09-11 03:42:00,
2013-09-10 22:47:00,71.6,64.9,30.04,NE,45,0.0,0.0,79,0.00,,,0.00,WUHU216DAVISVP2,2013-09-11 03:47:00,
2013-09-10 22:52:00,71.5,64.8,30.04,NE,45,0.0,0.0,79,0.00,,,0.00,WUHU216DAVISVP2,2013-09-11 03:52:00,
2013-09-10 22:57:00,71.5,64.7,30.05,NE,45,0.0,0.0,79,0.00,,,0.00,WUHU216DAVISVP2,2013-09-11 03:57:00,
2013-09-10 23:01:00,71.5,64.7,30.05,NE,45,0.0,0.0,79,0.00,,,0.00,WUHU216DAVISVP2,2013-09-11 04:01:00,
2013-09-10 23:02:00,71.5,64.7,30.05,NE,45,0.0,0.0,79,0.00,,,0.00,WUHU216DAVISVP2,2013-09-11 04:02:00,
2013-09-10 23:07:00,71.4,65.0,30.05,NE,45,0.0,0.0,80,0.00,,,0.00,WUHU216DAVISVP2,2013-09-11 04:07:00,
2013-09-10 23:12:00,71.4,64.6,30.05,NE,45,0.0,0.0,79,0.00,,,0.00,WUHU216DAVISVP2,2013-09-11 04:12:00,
2013-09-10 23:17:00,71.3,64.6,30.05,NE,45,0.0,0.0,79,0.00,,,0.00,WUHU216DAVISVP2,2013-09-11 04:17:00,
2013-09-10 23:22:00,71.2,64.5,30.05,NE,45,0.0,0.0,79,0.00,,,0.00,WUHU216DAVISVP2,2013-09-11 04:22:00,
2013-09-10 23:27:00,71.1,64.4,30.05,NE,45,0.0,0.0,79,0.00,,,0.00,WUHU216DAVISVP2,2013-09-11 04:27:00,
2013-09-10 23:32:00,70.9,64.5,30.05,NE,45,0.0,0.0,80,0.00,,,0.00,WUHU216DAVISVP2,2013-09-11 04:32:00,
2013-09-10 23:37:00,70.7,64.3,30.05,NE,45,0.0,0.0,80,0.00,,,0.00,WUHU216DAVISVP2,2013-09-11 04:37:00,
2013-09-10 23:42:00,70.5,64.1,30.05,NE,45,0.0,0.0,80,0.00,,,0.00,WUHU216DAVISVP2,2013-09-11 04:42:00,
2013-09-10 23:47:00,70.4,64.3,30.05,NE,45,0.0,0.0,81,0.00,,,0.00,WUHU216DAVISVP2,2013-09-11 04:47:00,
2013-09-10 23:52:00,70.3,64.2,30.05,NE,45,0.0,0.0,81,0.00,,,0.00,WUHU216DAVISVP2,2013-09-11 04:52:00,
2013-09-10 23:57:00,70.2,64.1,30.05,NE,45,0.0,0.0,81,0.00,,,0.00,WUHU216DAVISVP2,2013-09-11 04:57:00,